Simultaneous Nadir Overpasses (SNOs) Predictions

Prediction of SNOs between AQUA and NPP Satellite Orbit:

Table of predicted SNOs for the next 14.0 days since TLE Epoch: 1/24/2020
Index Date (AQUA) Time (AQUA) Lat,Lon (AQUA) SZA (AQUA ) Date (NPP) Time (NPP) Lat,Lon (NPP) SZA (NPP ) Distance(km) Time Diff (sec)
1 01/25/2020 14:05:12 -75.76, 27.08 63.36 01/25/2020 14:04:08 -75.77, 27.16 63.32 2.23 64
2 01/25/2020 14:54:22 76.51,-162.92 115.80 01/25/2020 14:54:36 76.50,-162.98 115.80 1.67 14
3 01/28/2020 06:21:32 -76.20, 144.30 64.48 01/28/2020 06:20:54 -76.21, 144.40 64.47 2.86 38
4 01/28/2020 07:10:42 76.92, -45.58 114.68 01/28/2020 07:11:22 76.92, -45.59 114.65 0.22 40
5 01/30/2020 22:38:02 -76.19, -99.85 65.14 01/30/2020 22:37:51 -76.18, -99.93 65.11 2.06 11
6 01/30/2020 23:27:03 77.33, 71.84 113.52 01/30/2020 23:28:09 77.33, 71.90 113.45 1.56 66
7 02/02/2020 14:05:11 75.82,-152.73 114.57 02/02/2020 14:04:09 75.83,-152.66 114.60 2.19 62
8 02/02/2020 14:54:22 -76.65, 17.58 66.40 02/02/2020 14:54:37 -76.65, 17.55 66.40 0.77 15
9 02/05/2020 06:21:39 75.90, -36.62 113.73 02/05/2020 06:21:04 75.89, -36.69 113.77 1.87 35




NCC Satellite Simultaneous Nadir Overpasses (SNOs) Prediction Service
